FW5449 Weather Reports


time (UTC)temp
F
wind
direction
speed
knots
gust
knots
rain 1hr
in
rain 24hr
in
rain mn
in
humidity
%
barometer
mb
20260903163248 58 163 5.2 10.4 0.00 0.50 0.00 82 1009.9
20260903162749 58 174 5.2 10.4 0.00 0.50 0.00 82 1009.9
20260903162240 58 151 5.2 11.3 0.00 0.50 0.00 83 1009.9
20260903161740 58 184 5.2 11.3 0.00 0.51 0.00 83 1010.0
20260903161241 57 128 6.1 12.2 0.00 0.51 0.00 84 1010.0
20260903160950 57 135 6.1 10.4 0.00 0.51 0.00 84 1010.1
20260903160832 57 164 7.0 12.2 0.00 0.51 0.00 84 1010.0
20260903155737 57 176 5.2 9.6 0.00 0.52 0.00 84 1010.1
20260903155236 56 172 5.2 9.6 0.00 0.53 0.00 85 1010.3
20260903154737 56 187 5.2 9.6 0.00 0.54 0.00 85 1010.2
20260903154233 56 145 6.1 13.0 0.00 0.54 0.00 85 1010.2
20260903153731 56 172 7.0 13.0 0.00 0.54 0.00 85 1010.2
20260903153231 56 169 6.1 10.4 0.00 0.54 0.00 85 1010.3
20260903152723 56 203 5.2 9.6 0.00 0.54 0.00 86 1010.3
20260903152223 56 167 5.2 9.6 0.00 0.54 0.00 86 1010.2
20260903151724 56 137 4.3 8.7 0.00 0.54 0.00 85 1010.3
20260903151217 56 142 4.3 8.7 0.00 0.54 0.00 86 1010.1
20260903150720 56 154 3.5 8.7 0.00 0.54 0.00 86 1010.2
20260903150217 56 153 2.6 6.1 0.00 0.54 0.00 87 1010.2
20260903145719 55 160 2.6 6.1 0.00 0.54 0.00 87 1010.1
20260903145217 55 172 2.6 6.1 0.00 0.54 0.00 87 1010.1
20260903144718 55 145 3.5 7.8 0.00 0.54 0.00 87 1010.1
20260903144216 55 163 3.5 7.8 0.00 0.54 0.00 87 1010.2
20260903143712 55 170 3.5 7.0 0.00 0.54 0.00 87 1010.2
20260903143211 55 168 4.3 7.0 0.00 0.54 0.00 87 1010.3
20260903142711 55 197 4.3 8.7 0.00 0.54 0.00 87 1010.3
20260903142211 55 163 4.3 8.7 0.00 0.54 0.00 87 1010.2
20260903141710 55 146 3.5 7.8 0.00 0.54 0.00 87 1010.1
20260903141211 55 158 3.5 7.0 0.00 0.54 0.00 87 1010.0
20260903140709 55 170 4.3 10.4 0.00 0.54 0.00 87 1010.0
20260903140219 55 174 6.1 11.3 0.00 0.54 0.00 87 1009.9
20260903140209 55 166 5.2 10.4 0.00 0.54 0.00 87 1010.0
20260903135206 55 168 7.0 13.9 0.00 0.54 0.00 87 1009.8
20260903134708 55 153 7.0 13.9 0.00 0.54 0.00 87 1009.8
20260903134205 55 159 7.0 12.2 0.00 0.54 0.00 88 1009.8
20260903133924 55 149 7.0 11.3 0.00 0.54 0.00 88 1009.6
20260903133206 55 201 6.1 10.4 0.00 0.54 0.00 88 1009.6
20260903132702 55 181 5.2 9.6 0.00 0.54 0.00 87 1009.8
20260903132204 55 181 5.2 9.6 0.00 0.54 0.00 87 1009.8
20260903131922 55 176 5.2 9.6 0.00 0.54 0.00 87 1009.9
20260903131424 55 150 5.2 9.6 0.00 0.54 0.00 87 1009.9
20260903130700 55 186 4.3 7.8 0.00 0.54 0.00 87 1009.8
20260903130159 55 144 5.2 10.4 0.00 0.54 0.00 87 1009.9
20260903125659 55 156 5.2 10.4 0.00 0.54 0.00 87 1009.8
20260903125655 55 169 5.2 11.3 0.00 0.54 0.00 87 1009.7
20260903124913 55 168 5.2 11.3 0.00 0.54 0.00 87 1009.8
20260903124156 55 185 5.2 12.2 0.00 0.54 0.00 87 1009.9
20260903123919 55 133 6.1 12.2 0.00 0.54 0.00 88 1009.9
20260903123155 55 152 7.0 12.2 0.00 0.54 0.00 88 1009.9
20260903122920 55 170 7.0 12.2 0.00 0.54 0.00 88 1009.9
20260903122152 55 153 6.1 11.3 0.00 0.54 0.00 88 1010.0
20260903121653 55 144 6.1 11.3 0.00 0.54 0.00 89 1010.0
20260903121411 55 178 6.1 11.3 0.00 0.54 0.00 88 1009.8
20260903120652 55 153 7.0 12.2 0.00 0.54 0.00 89 1009.8
20260903120151 55 145 7.0 12.2 0.00 0.54 0.00 89 1009.9
20260903115654 55 140 7.0 11.3 0.00 0.54 0.00 89 1009.9
20260903115153 55 158 6.1 11.3 0.00 0.54 0.00 88 1010.4
20260903114651 55 163 6.1 8.7 0.00 0.54 0.00 88 1010.4
20260903114138 55 168 5.2 8.7 0.00 0.54 0.00 88 1010.5
20260903113857 55 175 3.5 8.7 0.00 0.54 0.00 88 1010.3
20260903113108 55 187 2.6 7.0 0.00 0.54 0.00 88 1010.3
20260903112559 55 171 2.6 6.1 0.00 0.54 0.00 88 1010.2
20260903112059 54 189 3.5 9.6 0.00 0.54 0.00 88 1010.2
20260903111600 55 196 4.3 9.6 0.00 0.54 0.00 88 1010.3
20260903111058 55 197 5.2 8.7 0.00 0.54 0.00 87 1010.2
20260903110557 55 176 5.2 8.7 0.00 0.54 0.00 87 1010.0
20260903110055 55 134 6.1 10.4 0.00 0.54 0.00 86 1010.0
20260903105558 55 177 6.1 10.4 0.00 0.54 0.00 87 1010.0
20260903105057 55 176 6.1 10.4 0.00 0.54 0.00 86 1010.0
20260903104553 55 202 5.2 10.4 0.00 0.54 0.00 86 1009.9
20260903104052 55 152 6.1 10.4 0.00 0.54 0.00 87 1010.1
20260903103552 55 153 6.1 10.4 0.00 0.54 0.00 87 1010.1
20260903103050 55 175 6.1 11.3 0.00 0.54 0.00 87 1010.2
20260903102551 55 170 6.1 11.3 0.00 0.54 0.00 87 1010.1
20260903102054 55 172 5.2 9.6 0.00 0.54 0.00 87 1010.2
20260903101552 55 176 6.1 12.2 0.00 0.54 0.00 87 1010.1
20260903101313 56 156 7.0 12.2 0.00 0.54 0.00 87 1010.2
20260903100549 55 228 7.0 11.3 0.00 0.54 0.00 87 1010.1
20260903100047 55 156 5.2 10.4 0.00 0.54 0.00 87 1010.7
20260903095548 55 172 5.2 9.6 0.00 0.54 0.00 88 1010.1
20260903095047 55 162 5.2 9.6 0.00 0.54 0.00 88 1010.2
20260903094545 55 164 5.2 9.6 0.00 0.54 0.00 88 1010.3
20260903094305 55 171 5.2 9.6 0.00 0.54 0.00 89 1010.3
20260903093545 55 149 4.3 9.6 0.00 0.54 0.00 89 1010.3
20260903093309 55 189 4.3 9.6 0.00 0.54 0.00 89 1010.4
20260903092542 55 160 4.3 7.8 0.00 0.54 0.00 89 1010.4
20260903092042 55 180 4.3 7.8 0.00 0.54 0.00 89 1010.6
20260903091540 55 182 4.3 8.7 0.00 0.54 0.00 88 1010.6
20260903091040 55 157 4.3 8.7 0.00 0.54 0.00 89 1010.6
20260903090538 55 185 4.3 8.7 0.00 0.54 0.00 88 1010.5
20260903090038 55 184 5.2 9.6 0.00 0.54 0.00 89 1010.6
20260903085538 55 200 5.2 10.4 0.00 0.54 0.00 89 1010.6
20260903085037 55 174 5.2 10.4 0.00 0.54 0.00 89 1010.6
20260903084756 55 194 4.3 9.6 0.00 0.54 0.00 88 1010.6
20260903084036 56 187 5.2 10.4 0.00 0.54 0.00 88 1010.6
20260903083535 56 176 5.2 10.4 0.00 0.54 0.00 87 1010.5
20260903083035 56 197 6.1 13.9 0.00 0.54 0.00 87 1010.5
20260903082534 56 145 6.1 13.9 0.00 0.54 0.00 86 1010.5
20260903082034 56 195 5.2 10.4 0.00 0.54 0.00 86 1010.5
20260903081530 56 210 5.2 9.6 0.00 0.54 0.00 86 1010.6
20260903081041 56 110 5.2 9.6 0.00 0.54 0.00 87 1010.6
20260903080532 56 162 5.2 9.6 0.00 0.54 0.00 87 1010.5
20260903080030 56 172 5.2 10.4 0.00 0.54 0.00 88 1010.5
20260903075530 56 149 6.1 10.4 0.00 0.54 0.00 88 1010.5
20260903075031 56 153 5.2 9.6 0.00 0.54 0.00 88 1010.5
20260903074530 56 172 5.2 8.7 0.00 0.54 0.00 89 1010.7
20260903074031 56 138 5.2 9.6 0.00 0.54 0.00 89 1010.6
20260903073532 56 171 6.1 11.3 0.00 0.54 0.00 90 1010.6
20260903073254 55 197 6.1 11.3 0.00 0.54 0.00 90 1010.7
20260903072531 55 160 6.1 11.3 0.00 0.54 0.00 90 1010.6
20260903072026 55 183 6.1 11.3 0.00 0.54 0.00 90 1010.5
20260903071527 55 126 5.2 10.4 0.00 0.54 0.00 90 1010.6
20260903071026 55 148 5.2 8.7 0.00 0.54 0.00 91 1010.6
20260903070745 55 128 4.3 7.8 0.00 0.54 0.00 91 1010.6
20260903070024 55 164 4.3 8.7 0.00 0.54 0.00 91 1010.6
20260903065525 55 138 5.2 8.7 0.00 0.54 0.54 91 1010.6
20260903065023 55 145 5.2 9.6 0.00 0.54 0.54 91 1010.7
20260903064518 55 153 5.2 9.6 0.00 0.54 0.54 92 1010.6
20260903064015 55 132 5.2 8.7 0.00 0.54 0.54 92 1010.5
20260903063515 54 143 4.3 8.7 0.00 0.54 0.54 93 1010.5
20260903063010 54 123 2.6 6.1 0.00 0.54 0.54 93 1010.6
20260903062509 53 144 1.7 3.5 0.00 0.54 0.54 93 1010.7
20260903062009 53 163 0.9 3.5 0.00 0.54 0.54 92 1010.6
20260903061506 54 172 1.7 2.6 0.00 0.54 0.54 93 1010.7
20260903061225 54 174 1.7 3.5 0.00 0.54 0.54 92 1010.7
20260903060500 54 166 1.7 3.5 0.00 0.54 0.54 93 1010.6
20260903060002 54 129 1.7 3.5 0.00 0.54 0.54 93 1010.5
20260903055458 54 150 0.9 4.3 0.00 0.54 0.54 92 1010.7
20260903055234 54 167 1.7 4.3 0.00 0.54 0.54 92 1010.4
20260903054456 54 157 2.6 4.3 0.00 0.54 0.54 92 1010.6
20260903053957 55 162 2.6 4.3 0.00 0.54 0.54 92 1010.6
20260903053452 55 187 2.6 5.2 0.00 0.54 0.54 92 1010.7
20260903052954 55 137 3.5 5.2 0.00 0.54 0.54 92 1010.7
20260903052935 55 155 3.5 5.2 0.00 0.54 0.54 92 1010.6
20260903051952 55 127 2.6 5.2 0.00 0.54 0.54 92 1010.7
20260903051452 55 140 1.7 4.3 0.00 0.54 0.54 93 1010.7
20260903050954 55 148 1.7 3.5 0.00 0.54 0.54 93 1010.6
20260903050448 54 144 1.7 3.5 0.00 0.54 0.54 93 1010.6
20260903045950 54 153 1.7 3.5 0.00 0.54 0.54 93 1010.7
20260903045449 54 137 1.7 3.5 0.00 0.54 0.54 93 1010.7
20260903044948 54 137 2.6 4.3 0.00 0.54 0.54 93 1010.6
20260903044446 54 129 2.6 4.3 0.00 0.54 0.54 92 1010.7
20260903043944 54 126 2.6 3.5 0.00 0.54 0.54 92 1010.7
20260903043444 55 129 2.6 3.5 0.00 0.54 0.54 92 1010.6
20260903042943 54 126 1.7 3.5 0.00 0.54 0.54 92 1010.6
20260903042705 54 128 1.7 3.5 0.00 0.54 0.54 92 1010.6
20260903041933 55 129 1.7 3.5 0.00 0.54 0.54 92 1010.5
20260903041658 55 141 1.7 4.3 0.00 0.54 0.54 92 1010.3
20260903040933 55 131 1.7 4.3 0.00 0.54 0.54 92 1010.2
20260903040430 55 141 2.6 3.5 0.00 0.54 0.54 91 1010.2
20260903035930 55 134 2.6 3.5 0.00 0.54 0.54 91 1010.1
20260903035426 55 152 2.6 3.5 0.00 0.54 0.54 91 1010.0
20260903034920 56 147 2.6 3.5 0.00 0.54 0.54 91 1010.0
20260903034422 55 145 1.7 3.5 0.00 0.54 0.54 91 1010.0
20260903033916 55 184 1.7 3.5 0.00 0.54 0.54 91 1010.0
20260903033410 56 201 1.7 3.5 0.00 0.54 0.54 91 1009.9
20260903032900 56 202 1.7 3.5 0.00 0.54 0.54 90 1009.8
20260903032400 56 210 1.7 3.5 0.00 0.54 0.54 90 1009.9
20260903031857 56 220 1.7 5.2 0.00 0.54 0.54 89 1009.8
20260903031356 57 165 2.6 5.2 0.00 0.54 0.54 89 1009.7
20260903030856 57 157 2.6 5.2 0.00 0.54 0.54 89 1009.7
20260903030354 57 152 2.6 5.2 0.00 0.54 0.54 89 1009.6
20260903025853 57 168 2.6 5.2 0.00 0.54 0.54 89 1009.6
20260903025352 58 153 2.6 4.3 0.00 0.54 0.54 89 1009.6
20260903024850 58 170 2.6 4.3 0.00 0.54 0.54 89 1009.6
20260903024352 58 180 2.6 3.5 0.00 0.54 0.54 89 1009.5
20260903023849 58 181 2.6 6.1 0.00 0.54 0.54 89 1009.5
20260903023349 59 208 2.6 6.1 0.00 0.54 0.54 88 1009.5
20260903022848 59 207 2.6 7.8 0.00 0.54 0.54 88 1009.4
20260903022347 59 153 3.5 7.8 0.00 0.54 0.54 87 1009.4
20260903021845 59 203 1.7 7.0 0.00 0.54 0.54 88 1009.3
20260903021347 60 184 0.9 6.1 0.00 0.54 0.54 87 1009.3
20260903021104 60 180 0.9 0.9 0.00 0.54 0.54 86 1009.2
20260903020340 60 230 0.9 0.9 0.00 0.54 0.54 87 1009.2
20260903015838 60 220 0.9 0.9 0.00 0.54 0.54 87 1009.1
20260903015338 60 153 0.9 0.9 0.00 0.54 0.54 86 1009.2
20260903014834 60 168 0.9 0.9 0.00 0.54 0.54 87 1009.1
20260903014334 60 249 0.9 0.9 0.00 0.54 0.54 88 1009.0
20260903013830 60 168 0.9 0.9 0.00 0.54 0.54 88 1009.1
20260903013322 60 231 0.0 0.9 0.00 0.54 0.54 88 1009.0
20260903012823 60 276 0.0 0.9 0.00 0.54 0.54 88 1008.9
20260903012322 60 286 0.0 0.9 0.00 0.54 0.54 86 1008.9
20260903011824 60 238 0.0 0.9 0.00 0.54 0.54 87 1008.9
20260903011320 60 232 0.9 0.9 0.01 0.54 0.54 89 1008.9
20260903010821 60 266 0.9 0.9 0.01 0.54 0.54 89 1008.9
20260903010312 60 277 0.9 0.9 0.02 0.54 0.54 89 1008.9
20260903005813 60 235 0.0 0.9 0.03 0.54 0.54 91 1008.9
20260903005309 59 286 0.0 0.9 0.05 0.54 0.54 91 1008.9
20260903004807 59 270 0.0 0.9 0.07 0.54 0.54 89 1009.0
20260903004306 59 244 0.0 0.9 0.09 0.54 0.54 90 1008.8
20260903003806 59 276 0.0 0.9 0.11 0.54 0.54 91 1008.7
20260903003305 59 255 0.0 0.9 0.17 0.54 0.54 92 1008.5
20260903002807 59 271 0.0 0.9 0.19 0.54 0.54 92 1008.6
20260903002306 60 198 0.9 0.9 0.22 0.54 0.54 94 1008.6
20260903002029 60 172 0.9 0.9 0.22 0.54 0.54 94 1008.4
20260903001259 60 160 0.9 0.9 0.21 0.53 0.54 94 1008.3
20260903000801 59 156 0.9 0.9 0.22 0.53 0.53 94 1008.5
20260903000519 59 222 0.9 0.9 0.21 0.52 0.52 94 1008.4
20260903000024 59 225 0.9 0.9 0.21 0.51 0.51 94 1008.3
20260902235259 59 215 0.9 0.9 0.19 0.49 0.49 94 1008.3
20260902234801 59 222 0.9 0.9 0.17 0.47 0.47 94 1008.2
20260902234257 59 231 0.9 0.9 0.15 0.45 0.45 94 1008.1
20260902233801 59 203 0.0 0.9 0.13 0.43 0.43 93 1008.1
20260902233300 59 158 0.0 0.9 0.07 0.37 0.38 93 1008.0
20260902232757 60 183 0.0 0.9 0.05 0.35 0.35 93 1007.9
20260902232257 60 179 0.0 0.9 0.02 0.32 0.32 93 1007.9
20260902232023 60 150 0.0 0.9 0.02 0.32 0.32 93 1007.7
20260902231252 60 172 0.0 0.9 0.02 0.31 0.31 92 1007.7
20260902230753 60 149 0.0 0.9 0.02 0.31 0.31 92 1007.7
20260902230252 60 173 0.0 0.9 0.02 0.31 0.31 92 1007.6
20260902230015 60 125 0.0 0.9 0.02 0.30 0.30 92 1007.5
20260902225249 60 112 0.0 0.9 0.03 0.30 0.30 92 1007.6
20260902224751 60 107 0.0 0.9 0.03 0.30 0.30 91 1007.5
20260902224249 60 139 0.0 0.9 0.03 0.30 0.30 91 1007.5
20260902223753 60 137 0.0 0.9 0.03 0.30 0.30 91 1007.5
20260902223247 60 130 0.0 0.9 0.03 0.30 0.30 91 1007.5
20260902222747 60 126 0.0 0.9 0.03 0.30 0.30 91 1007.4
20260902222246 60 139 0.0 0.9 0.05 0.30 0.30 90 1007.3
20260902222007 60 134 0.0 0.9 0.06 0.30 0.30 91 1007.3
20260902221244 60 183 0.0 0.9 0.06 0.29 0.29 91 1007.2
20260902220742 60 161 0.0 0.9 0.06 0.29 0.29 91 1007.2
20260902220234 60 149 0.0 0.9 0.06 0.29 0.29 91 1007.1
20260902215955 60 109 0.0 0.9 0.05 0.28 0.29 91 1007.1
20260902215236 60 112 0.0 0.9 0.04 0.27 0.27 91 1007.3
20260902214731 60 143 0.0 0.9 0.04 0.27 0.27 91 1007.2
20260902214230 59 168 0.0 0.9 0.04 0.27 0.27 91 1007.1
20260902213949 59 118 0.0 0.9 0.04 0.27 0.27 91 1007.2
20260902213448 59 114 0.0 0.9 0.05 0.27 0.27 91 1007.2
20260902212725 59 117 0.0 0.9 0.05 0.27 0.27 90 1007.2
20260902212223 60 113 1.7 11.3 0.03 0.25 0.26 90 1007.1
20260902212210 60 114 5.2 13.0 0.02 0.24 0.24 90 1007.1
20260902211217 60 108 7.0 14.8 0.01 0.23 0.23 89 1007.1
20260902210717 60 147 7.8 14.8 0.01 0.23 0.23 89 1007.1
20260902210444 60 135 7.8 13.9 0.01 0.23 0.23 88 1007.0
20260902205719 60 116 7.0 13.0 0.01 0.23 0.23 89 1007.0
20260902205213 60 139 7.0 12.2 0.01 0.23 0.23 89 1007.0
20260902204934 60 150 6.1 13.0 0.01 0.23 0.23 89 1006.9
20260902204213 60 125 7.0 13.9 0.01 0.23 0.23 89 1006.9
20260902203713 60 121 7.8 13.9 0.01 0.23 0.23 89 1006.9
20260902203210 60 147 7.8 12.2 0.00 0.22 0.22 88 1006.9
20260902202711 60 133 7.8 12.2 0.00 0.22 0.22 89 1006.9
20260902202210 60 118 7.8 14.8 0.00 0.22 0.22 88 1006.9
20260902201709 60 112 8.7 14.8 0.00 0.22 0.22 88 1006.8
20260902201208 60 122 7.8 13.9 0.00 0.22 0.22 88 1006.7
20260902200711 60 112 7.8 15.6 0.00 0.22 0.22 88 1006.7
20260902200207 60 139 7.8 16.5 0.01 0.22 0.22 87 1006.8
20260902200158 60 150 7.0 16.5 0.01 0.22 0.22 88 1006.6
20260902195205 60 120 3.5 13.9 0.01 0.22 0.22 88 1006.7
20260902194705 60 111 0.0 7.8 0.01 0.22 0.22 88 1006.7
20260902194203 60 158 0.0 0.9 0.01 0.22 0.22 88 1006.6
20260902193705 60 134 0.0 0.9 0.02 0.22 0.22 88 1006.6
20260902193206 60 146 0.0 0.9 0.02 0.22 0.22 88 1006.6
20260902192702 60 146 0.0 0.9 0.02 0.22 0.22 88 1006.7
20260902192420 60 123 0.0 0.9 0.02 0.22 0.22 88 1006.7
20260902191702 60 102 0.0 0.9 0.02 0.22 0.22 89 1006.6
20260902191200 59 114 0.0 0.9 0.02 0.22 0.22 89 1006.6
20260902190658 59 152 0.0 0.9 0.02 0.22 0.22 90 1006.6
20260902190423 59 115 0.9 0.9 0.02 0.21 0.21 90 1006.6
20260902185700 59 111 0.9 0.9 0.02 0.21 0.21 90 1006.6
20260902185159 59 113 0.9 0.9 0.02 0.21 0.21 91 1006.7
20260902184658 59 97 0.9 0.9 0.02 0.21 0.21 91 1006.7
20260902184158 59 114 0.9 0.9 0.02 0.21 0.21 90 1006.5
20260902183659 59 127 0.9 0.9 0.01 0.20 0.20 91 1006.6
20260902183419 59 118 0.9 0.9 0.02 0.20 0.20 90 1006.8
20260902182656 59 151 0.0 0.9 0.04 0.20 0.20 90 1006.8
20260902182152 59 106 0.0 0.9 0.05 0.20 0.20 90 1006.7
20260902181652 59 111 0.9 0.9 0.06 0.20 0.20 90 1006.7
20260902181155 59 137 0.9 0.9 0.09 0.20 0.20 90 1006.7
20260902180654 59 116 0.9 0.9 0.11 0.20 0.20 90 1006.9
20260902180153 59 101 0.9 0.9 0.12 0.19 0.19 90 1006.8
20260902175650 58 118 0.9 0.9 0.14 0.19 0.19 89 1006.8
20260902175150 58 79 0.9 0.9 0.15 0.19 0.19 90 1006.8
20260902174912 58 114 0.9 0.9 0.15 0.19 0.19 90 1006.7
20260902174411 58 104 0.9 5.2 0.15 0.19 0.19 91 1006.7
20260902173647 58 96 1.7 5.2 0.15 0.19 0.19 90 1006.9
20260902173133 58 86 0.9 4.3 0.14 0.18 0.18 90 1007.1
20260902172622 58 110 2.6 6.1 0.12 0.16 0.16 89 1007.0
20260902172112 58 139 1.7 6.1 0.11 0.15 0.15 89 1006.9
20260902171603 58 119 0.9 4.3 0.10 0.13 0.14 89 1006.9
20260902171101 58 190 1.7 7.0 0.08 0.11 0.11 88 1007.0
20260902170601 58 152 2.6 7.0 0.05 0.08 0.08 88 1007.1
20260902170318 58 224 2.6 6.1 0.03 0.06 0.07 88 1007.0
20260902165558 58 205 2.6 5.2 0.03 0.05 0.05 87 1006.9
20260902165056 58 182 3.5 6.1 0.03 0.04 0.04 87 1006.8
20260902164554 59 208 3.5 7.0 0.04 0.04 0.04 86 1006.7
20260902164045 59 160 3.5 7.0 0.04 0.04 0.04 85 1006.7
20260902163543 59 149 2.6 6.1 0.04 0.04 0.04 85 1006.7